{"data":{"norad_id":60463,"intl_designator":"2024-148F","name":"YAOGAN-43 01F","alt_names":[],"object_type":"PAYLOAD","status":"ACTIVE","operator":null,"country":"PRC","launch_date":"2024-08-16","launch_site_code":"XICLF","launch_vehicle":null,"mission":null,"orbit_class":"UNKNOWN","rcs_meters":null,"size_class":null,"mass_kg":null,"dimensions":null,"purposes":[],"wikipedia_slug":null,"has_3d_model":false,"image_url":null,"decayed_at":null,"tle_current":{"epoch":"2026-09-22T23:02:14.280000Z","epoch_age_seconds":76491,"freshness":"FRESH","line1":"1 60463U 24148F   26265.95988750  .00010553  00000+0  30625-3 0  9992","line2":"2 60463  34.9911 243.2797 0005892  26.2728 333.8288 15.34692208117300","mean_motion":15.34692208,"eccentricity":0.0005892,"inclination_deg":34.9911,"raan_deg":243.2797,"arg_perigee_deg":26.2728,"mean_anomaly_deg":333.8288,"bstar":0.00030625,"rev_number":11730,"period_min":93.829889308984,"perigee_km":457.80476282949,"apogee_km":465.86498568611,"semimajor_km":6839.9718742578,"source":"CELESTRAK","updated_at":"2026-09-23T09:00:20.619454Z"}}}